Location: Unspecified
(0.0000°N, 0.0000°E)
Time: 21:39:45
(UTC+00:00)

Transit 4A - Pass Details

Date: 25 April 2024
Orbit: 871 x 971 km, 66.8° (Epoch: 22 May)

Event Time Altitude Azimuth Distance (km) Brightness Sun altitude
Rises 08:33:22 0° 161° (SSE) 3,628 11.0 37.6°
Reaches altitude 10° 08:38:25 10° 126° (SE) 2,654 10.9 38.8°
Maximum altitude 08:39:55 11° 111° (ESE) 2,580 11.0 39.2°
Drops below altitude 10° 08:41:24 10° 97° (E) 2,635 11.3 39.5°
Sets 08:46:17 0° 62° (ENE) 3,544 11.8 40.7°
